Starlink 33809

operational
NORAD ID: 63508 Int'l Des: 2025-071 Owner: SPXS Country: US Constellation: starlink
LEOCIRCULAR

Starlink 33809について

説明を読み込み中...

リアルタイム位置

3D地球を読み込み中...

次回通過

高度履歴

Altitude vs Time

uPlot chart will show altitude changes over time

軌道要素

1 63508U 25071R 25304.64100459 .00037366 00000-0 12691-2 0 9996
2 63508 53.1590 19.1856 0001299 90.0993 270.0156 15.30156340 32956
Epoch: Oct 31, 2025 • Age: 27 hours

現在のステータス

高度 476.3 km
速度 7.63 km/s
衛星直下点 30.58°N, 153.18°W
打ち上げ日 Apr 7, 2025
運用期間 0.5 years
タイプ internet

技術仕様

分類 Payload
質量 575.00 kg
乾燥質量 530.00 kg
総質量 575.00 kg
長さ 0.30 m
直径 4.10 m
スパン 29.00 m
形状 Box + pan
製造者 SPXS
バスタイプ Starlink V2MO
フェーズステータス In Orbit
所有者/国 SPXS/US

大規模コンステレーション

Loading constellations...